Regional Weather Roundup
Issued by NWS

Home | Current Version | Previous Version | Text Only | Print | Product List | Glossary On
Versions: 1 2 3 4 5 6 7 8 9 10 11 12 13 14 15 16 17 18 19 20 21 22 23 24 25 26 27 28 29 30 31 32 33 34 35 36 37 38 39 40 41 42 43 44 45 46 47 48 49 50
000
ASUS45 KPSR 232210
RWRAZ

ARIZONA REGIONAL HOURLY WEATHER ROUNDUP
NATIONAL WEATHER SERVICE PHOENIX AZ
300 PM MST WED JUL 23 2014

NOTE: FAIR INDICATES FEW OR NO CLOUDS BELOW 12,000 FEET WITH NO
SIGNIFICANT WEATHER AND/OR OBSTRUCTIONS TO VISIBILITY.

AZZ001>003-036-232300-
NORTHWEST ARIZONA

CITY           SKY/WX    TMP DP  RH WIND       PRES   REMARKS
BULLHEAD CITY  SUNNY    113  32   6 SW8G17    29.79F HX 105
KINGMAN        MOSUNNY  103  36  10 SW15G22   30.05F
$$

AZZ004>008-015-016-018-232300-
NORTH CENTRAL ARIZONA

CITY           SKY/WX    TMP DP  RH WIND       PRES   REMARKS
GRAND CANYON   PTSUNNY   87  37  17 CALM      30.32F
WILLIAMS       PTSUNNY   82  41  23 S7        30.41S
PRESCOTT       PTSUNNY   94  40  15 S8        30.18F
FLAGSTAFF      PTSUNNY   85  44  23 SW13G21   30.37F
PAYSON         PTSUNNY   95  50  21 SW9       30.21F
PAGE           SUNNY    103  40  11 CALM      30.08F
$$

AZZ009>014-017-232300-
NORTHEAST ARIZONA

CITY           SKY/WX    TMP DP  RH WIND       PRES   REMARKS
WINSLOW        PTSUNNY   91  54  28 CALM      30.16F
SAINT JOHNS    CLOUDY    73  61  65 S25       30.28S
WINDOW ROCK    CLOUDY    86  44  23 NE8       30.36F
SHOW LOW       PTSUNNY   84  46  26 S13       30.34F
$$

AZZ023-232300-
GREATER PHOENIX AREA

CITY           SKY/WX    TMP DP  RH WIND       PRES   REMARKS
PHOENIX        PTSUNNY  111  52  14 VRB5      29.81F HX 108
BUCKEYE          N/A    109  46  12 S6        29.82F HX 105
GLENDALE       PTSUNNY  109  55  17 SE8       29.87  HX 108
LUKE AFB       NOT AVBL
DEER VALLEY    MOSUNNY  108  52  15 S7        29.84F HX 105
SCOTTSDALE     MOSUNNY  110  53  15 VRB5      29.86F HX 108
MESA-FALCON    PTSUNNY  113  55  15 S13       29.83F HX 112
MESA-GATEWAY   PTSUNNY  109  48  13 S9        29.86F HX 106
CHANDLER       PTSUNNY  109  55  17 W6          N/A  HX 108
$$

AZZ027-028-232300-
SOUTHWEST MARICOPA COUNTY AND PINAL COUNTY

CITY           SKY/WX    TMP DP  RH WIND       PRES   REMARKS
CASA GRANDE    SUNNY    109  55  17 S5        29.86F HX 108
GILA BEND      PTCLDY   115  46  10 VRB2      29.81F HX 110
$$

AZZ503-504-507>509-232300-
SOUTHEAST ARIZONA

CITY           SKY/WX    TMP DP  RH WIND       PRES   REMARKS
TUCSON         SUNNY    104  51  17 E13       29.97F HX 101
DAVIS-MONTHAN  PTSUNNY  104  55  19 E13G21    29.95F HX 102
RYAN FIELD       N/A    106  52  16 CALM      29.95F HX 103
NOGALES        MOSUNNY   99  52  20 MISG      30.07F
SIERRA VISTA   PTSUNNY   93  54  26 E9G17     30.17F
DOUGLAS        MOSUNNY   95  56  26 E12G23    30.12F
SAFFORD        MOSUNNY   99  53  21 E17G26    30.04F
$$

AZZ020-021-025-026-031-232300-
SOUTHWEST ARIZONA

CITY           SKY/WX    TMP DP  RH WIND       PRES   REMARKS
YUMA           MOSUNNY  117  30   5 VRB5      29.75F HX 107
$$

CAZ031-033-041-043-047-048-061-232300-
SOUTHERN CALIFORNIA

CITY           SKY/WX    TMP DP  RH WIND       PRES   REMARKS
DOWNTOWN L.A.  SUNNY     84  54  35 W7        29.92F
L.A. AIRPORT   MOSUNNY   78  57  48 W21       29.94F
SAN DIEGO      MOSUNNY   80  60  50 NW9       29.95F
BURBANK        SUNNY     92  49  22 S12       29.92F
ONTARIO        MOSUNNY   98  47  17 W13G18    29.93F
RIVERSIDE      SUNNY     99  51  19 W9        29.92F
PALM SPRINGS   SUNNY    115  22   4 N13       29.80F HX 105
EL CENTRO NAS  MOSUNNY  113  34   7 E3        29.74F HX 105
IMPERIAL       MOSUNNY  113  35   7 VRB6      29.74F HX 106
BLYTHE         MOSUNNY  114  33   6 E7        29.77F HX 106
NEEDLES        MOSUNNY  114  29   5 CALM      29.81F HX 105
$$

NVZ020-UTZ003-232300-
SOUTHERN NEVADA-UTAH

CITY           SKY/WX    TMP DP  RH WIND       PRES   REMARKS
LAS VEGAS      MOSUNNY  110  21   4 S17G24    29.86F HX 101
SALT LAKE CITY PTSUNNY   99  36  11 S18       30.00F
$$

NMZ009-TXZ055-232300-
NEW MEXICO-WEST TEXAS

CITY           SKY/WX    TMP DP  RH WIND       PRES   REMARKS
ALBUQUERQUE    PTSUNNY   87  54  32 S14       30.29F
EL PASO        MOSUNNY   95  43  16 SE17G29   30.15F
$$


........................KEY........................
SKY/WX - SKY CONDITION/WEATHER
TMP    - TEMPERATURE IN FAHRENHEIT
DP     - DEW POINT IN FAHRENHEIT
RH     - RELATIVE HUMIDITY IN PERCENT
WIND   - DIRECTION AND SPEED IN MILES PER HOUR (MPH)
VRB    - VARIABLE WIND DIRECTION
PRES   - MEAN SEA LEVEL PRESSURE IN INCHES OF MERCURY
         F - FALLING PRESSURE   R - RISING PRESSURE
         S - STEADY PRESSURE
VSB    - VISIBILITY IN MILES
HX     - HEAT INDEX IN FAHRENHEIT
WCI    - WIND CHILL INDEX IN FAHRENHEIT
TC     - TEMPERATURE IN CELSIUS WHICH IS ALSO KNOWN AS
         TEMPERATURE IN CENTIGRADE
AFB    - AIR FORCE BASE
         LUKE AFB IS LUKE AIR FORCE BASE
         DAVIS-MONTHAN IS DAVIS-MONTHAN AIR FORCE BASE
NAS    - NAVAL AIR STATION
         EL CENTRO NAS IS EL CENTRO NAVAL AIR STATION
N/A    - NOT AVAILABLE


USA.gov is the U.S. government's official web portal to all federal, state and local government web resources and services.